Location: Unspecified
(48.2082°N, 0.0000°E)
Time: 17:27:56
(UTC+00:00)

Transit 4A - Pass Details

Date: 17 June 2019
Orbit: 862 x 982 km, 66.8° (Epoch: 17 July)

Event Time Altitude Azimuth Distance (km) Brightness Sun altitude
Rises 11:47:34 0° 267° (W) 3,651 11.0 65.0°
Reaches altitude 10° 11:50:43 10° 281° (WNW) 2,720 10.4 65.1°
Maximum altitude 11:55:38 23° 332° (NNW) 1,973 9.7 65.1°
Drops below altitude 10° 12:00:36 10° 23° (NNE) 2,747 10.2 65.2°
Sets 12:03:49 0° 38° (NE) 3,695 10.8 65.2°
